Location: Boitzum
(52.1496°N, 9.6943°E)
Time: 14:03:11
(UTC+00:00)

Nadezhda 3 Rocket - Pass Details

Date: 13 January 2026
Orbit: 956 x 997 km, 82.9° (Epoch: 16 February)

Event Time Altitude Azimuth Distance (km) Brightness Sun altitude
Rises 05:04:07 0° 350° (N) 3,668 6.8 -20.7°
Reaches altitude 10° 05:06:37 10° 352° (N) 2,722 6.2 -20.3°
Maximum altitude 05:12:53 79° 79° (E) 1,001 4.1 -19.3°
Drops below altitude 10° 05:19:09 10° 166° (SSE) 2,733 6.7 -18.4°
Sets 05:21:40 0° 168° (SSE) 3,682 7.4 -18.0°
